Time,TemperatureF,DewpointF,PressureIn,WindDirection,WindDirectionDegrees,WindSpeedMPH,WindSpeedGustMPH,Humidity,HourlyPrecipIn,Conditions,Clouds,dailyrainin,SoftwareType,DateUTC
2013-01-12 00:02:00,39.2,11.1,29.69,NE,39,0.0,3.0,31,0.00,,,0.00,meteohub,2013-01-12 08:02:00,
2013-01-12 00:08:00,39.2,11.1,29.69,NE,39,0.0,3.0,31,0.00,,,0.00,meteohub,2013-01-12 08:08:00,
2013-01-12 00:14:00,39.2,11.8,29.69,NE,39,0.0,2.0,32,0.00,,,0.00,meteohub,2013-01-12 08:14:00,
2013-01-12 00:20:00,39.2,11.8,29.69,NE,37,0.0,0.0,32,0.00,,,0.00,meteohub,2013-01-12 08:20:00,
2013-01-12 00:26:00,39.7,12.2,29.69,WSW,258,0.0,0.0,32,0.00,,,0.00,meteohub,2013-01-12 08:26:00,
2013-01-12 00:32:00,39.4,12.0,29.69,WSW,258,0.0,0.0,32,0.00,,,0.00,meteohub,2013-01-12 08:32:00,
2013-01-12 00:38:00,39.4,12.0,29.69,NNW,328,0.0,0.0,32,0.00,,,0.00,meteohub,2013-01-12 08:38:00,
2013-01-12 00:44:00,40.5,11.5,29.69,North,357,6.0,6.0,30,0.00,,,0.00,meteohub,2013-01-12 08:44:00,
2013-01-12 00:50:00,41.7,11.8,29.69,North,0,6.0,8.0,29,0.00,,,0.00,meteohub,2013-01-12 08:50:00,
2013-01-12 00:56:00,42.3,12.2,29.69,North,357,8.0,8.0,29,0.00,,,0.00,meteohub,2013-01-12 08:56:00,
2013-01-12 01:02:00,42.4,12.4,29.69,NNE,12,4.0,8.0,29,0.00,,,0.00,meteohub,2013-01-12 09:02:00,
2013-01-12 01:08:00,42.4,11.7,29.69,NNE,18,4.0,8.0,28,0.00,,,0.00,meteohub,2013-01-12 09:08:00,
2013-01-12 01:14:00,42.3,11.5,29.69,NNE,13,5.0,8.0,28,0.00,,,0.00,meteohub,2013-01-12 09:14:00,
2013-01-12 01:20:00,42.6,11.8,29.69,North,7,5.0,8.0,28,0.00,,,0.00,meteohub,2013-01-12 09:20:00,
2013-01-12 01:26:00,42.8,12.0,29.69,NNE,33,0.0,8.0,28,0.00,,,0.00,meteohub,2013-01-12 09:26:00,
2013-01-12 01:32:00,43.0,9.5,29.69,NNE,18,5.0,8.0,25,0.00,,,0.00,meteohub,2013-01-12 09:32:00,
2013-01-12 01:38:00,42.4,10.0,29.69,ENE,70,5.0,8.0,26,0.00,,,0.00,meteohub,2013-01-12 09:38:00,
2013-01-12 01:44:00,41.9,11.1,29.69,NE,47,0.0,8.0,28,0.00,,,0.00,meteohub,2013-01-12 09:44:00,
2013-01-12 01:50:00,41.5,10.8,29.69,NNE,16,0.0,5.0,28,0.00,,,0.00,meteohub,2013-01-12 09:50:00,
2013-01-12 01:56:00,41.9,11.1,29.69,North,3,0.0,3.0,28,0.00,,,0.00,meteohub,2013-01-12 09:56:00,
2013-01-12 02:02:00,42.3,11.5,29.69,North,2,0.0,0.0,28,0.00,,,0.00,meteohub,2013-01-12 10:02:00,
2013-01-12 02:08:00,42.3,11.5,29.69,North,2,0.0,0.0,28,0.00,,,0.00,meteohub,2013-01-12 10:08:00,
2013-01-12 02:14:00,42.8,12.0,29.69,NE,48,8.0,0.0,28,0.00,,,0.00,meteohub,2013-01-12 10:14:00,
2013-01-12 02:20:00,43.3,12.4,29.69,NE,40,7.0,8.0,28,0.00,,,0.00,meteohub,2013-01-12 10:20:00,
2013-01-12 02:26:00,43.7,12.7,29.69,ENE,65,5.0,8.0,28,0.00,,,0.00,meteohub,2013-01-12 10:26:00,
2013-01-12 02:32:00,44.1,13.1,29.69,East,83,3.0,8.0,28,0.00,,,0.00,meteohub,2013-01-12 10:32:00,
2013-01-12 02:37:00,44.2,10.6,29.69,East,90,3.0,8.0,25,0.00,,,0.00,meteohub,2013-01-12 10:37:00,
2013-01-12 02:43:00,44.8,13.6,29.69,SSE,163,2.0,8.0,28,0.00,,,0.00,meteohub,2013-01-12 10:43:00,
2013-01-12 02:49:00,43.5,12.6,29.69,SSE,163,0.0,6.0,28,0.00,,,0.00,meteohub,2013-01-12 10:49:00,
2013-01-12 02:55:00,42.6,12.6,29.69,SSE,163,0.0,5.0,29,0.00,,,0.00,meteohub,2013-01-12 10:55:00,
2013-01-12 03:01:00,42.1,12.0,29.69,SSE,163,0.0,0.0,29,0.00,,,0.00,meteohub,2013-01-12 11:01:00,
2013-01-12 03:07:00,41.7,11.8,29.69,SSE,163,0.0,0.0,29,0.00,,,0.00,meteohub,2013-01-12 11:07:00,
2013-01-12 03:13:00,41.5,11.7,29.69,SSE,163,0.0,0.0,29,0.00,,,0.00,meteohub,2013-01-12 11:13:00,
2013-01-12 03:19:00,41.5,11.7,29.69,SSE,163,0.0,0.0,29,0.00,,,0.00,meteohub,2013-01-12 11:19:00,
2013-01-12 03:25:00,41.7,11.8,29.69,SSE,163,0.0,0.0,29,0.00,,,0.00,meteohub,2013-01-12 11:25:00,
2013-01-12 03:31:00,42.1,12.0,29.69,SSE,163,0.0,0.0,29,0.00,,,0.00,meteohub,2013-01-12 11:31:00,
2013-01-12 03:37:00,42.6,12.6,29.69,NW,321,0.0,0.0,29,0.00,,,0.00,meteohub,2013-01-12 11:37:00,
2013-01-12 03:43:00,42.1,12.0,29.69,NW,320,0.0,0.0,29,0.00,,,0.00,meteohub,2013-01-12 11:43:00,
2013-01-12 03:49:00,42.1,12.0,29.69,NNW,342,0.0,0.0,29,0.00,,,0.00,meteohub,2013-01-12 11:49:00,
2013-01-12 03:55:00,41.7,11.8,29.69,NW,323,0.0,4.0,29,0.00,,,0.00,meteohub,2013-01-12 11:55:00,
2013-01-12 04:01:00,41.5,10.8,29.69,NW,322,0.0,0.0,28,0.00,,,0.00,meteohub,2013-01-12 12:01:00,
2013-01-12 04:07:00,41.2,10.6,29.69,NW,322,0.0,0.0,28,0.00,,,0.00,meteohub,2013-01-12 12:07:00,
2013-01-12 04:13:00,41.0,11.1,29.69,NW,322,0.0,0.0,29,0.00,,,0.00,meteohub,2013-01-12 12:13:00,
2013-01-12 04:19:00,41.0,11.1,29.69,SSE,152,0.0,0.0,29,0.00,,,0.00,meteohub,2013-01-12 12:19:00,
2013-01-12 04:25:00,41.9,12.0,29.69,South,172,3.0,3.0,29,0.00,,,0.00,meteohub,2013-01-12 12:25:00,
2013-01-12 04:31:00,41.0,11.1,29.69,East,87,0.0,3.0,29,0.00,,,0.00,meteohub,2013-01-12 12:31:00,
2013-01-12 04:37:00,40.5,10.8,29.69,East,85,4.0,4.0,29,0.00,,,0.00,meteohub,2013-01-12 12:37:00,
2013-01-12 04:43:00,40.8,10.9,29.69,ESE,110,0.0,8.0,29,0.00,,,0.00,meteohub,2013-01-12 12:43:00,
2013-01-12 04:49:00,40.3,10.6,29.69,ENE,65,2.0,8.0,29,0.00,,,0.00,meteohub,2013-01-12 12:49:00,
2013-01-12 04:55:00,40.3,10.6,29.69,ENE,58,4.0,6.0,29,0.00,,,0.00,meteohub,2013-01-12 12:55:00,
2013-01-12 05:01:00,40.6,10.9,29.69,ENE,62,8.0,9.0,29,0.00,,,0.00,meteohub,2013-01-12 13:01:00,
2013-01-12 05:07:00,41.0,10.4,29.69,NNE,27,6.0,10.0,28,0.00,,,0.00,meteohub,2013-01-12 13:07:00,
2013-01-12 05:13:00,41.0,10.4,29.69,ENE,70,6.0,11.0,28,0.00,,,0.00,meteohub,2013-01-12 13:13:00,
2013-01-12 05:19:00,41.0,10.4,29.69,ENE,70,6.0,11.0,28,0.00,,,0.00,meteohub,2013-01-12 13:19:00,
2013-01-12 05:25:00,40.6,10.0,29.69,East,86,4.0,11.0,28,0.00,,,0.00,meteohub,2013-01-12 13:25:00,
2013-01-12 05:32:00,40.6,10.0,29.69,ENE,58,4.0,9.0,28,0.00,,,0.00,meteohub,2013-01-12 13:32:00,
2013-01-12 05:38:00,40.5,8.2,29.69,East,89,3.0,8.0,26,0.00,,,0.00,meteohub,2013-01-12 13:38:00,
2013-01-12 05:44:00,40.5,9.9,29.72,East,82,4.0,8.0,28,0.00,,,0.00,meteohub,2013-01-12 13:44:00,
2013-01-12 05:50:00,40.1,9.7,29.72,NE,45,5.0,8.0,28,0.00,,,0.00,meteohub,2013-01-12 13:50:00,
2013-01-12 05:56:00,39.9,9.5,29.72,East,87,4.0,8.0,28,0.00,,,0.00,meteohub,2013-01-12 13:56:00,
2013-01-12 06:02:00,40.1,9.7,29.72,NE,56,4.0,6.0,28,0.00,,,0.00,meteohub,2013-01-12 14:02:00,
2013-01-12 06:08:00,39.7,9.3,29.72,NE,36,0.0,8.0,28,0.00,,,0.00,meteohub,2013-01-12 14:08:00,
2013-01-12 06:14:00,39.4,9.7,29.72,North,7,0.0,8.0,29,0.00,,,0.00,meteohub,2013-01-12 14:14:00,
2013-01-12 06:20:00,38.8,9.3,29.72,North,7,0.0,6.0,29,0.00,,,0.00,meteohub,2013-01-12 14:20:00,
2013-01-12 06:26:00,38.5,9.0,29.72,NE,47,0.0,0.0,29,0.00,,,0.00,meteohub,2013-01-12 14:26:00,
2013-01-12 06:32:00,38.8,9.3,29.72,ENE,75,6.0,6.0,29,0.00,,,0.00,meteohub,2013-01-12 14:32:00,
2013-01-12 06:38:00,39.9,10.2,29.72,ENE,61,6.0,9.0,29,0.00,,,0.00,meteohub,2013-01-12 14:38:00,
2013-01-12 06:47:00,39.7,10.0,29.72,ENE,64,3.0,9.0,29,0.00,,,0.00,meteohub,2013-01-12 14:47:00,
2013-01-12 06:53:00,39.2,9.7,29.72,NE,51,0.0,8.0,29,0.00,,,0.00,meteohub,2013-01-12 14:53:00,
2013-01-12 07:00:00,39.4,9.0,29.75,ENE,61,0.0,6.0,28,0.00,,,0.00,meteohub,2013-01-12 15:00:00,
2013-01-12 07:06:00,39.0,9.5,29.75,ENE,66,0.0,4.0,29,0.00,,,0.00,meteohub,2013-01-12 15:06:00,
2013-01-12 07:12:00,39.4,9.0,29.75,East,81,5.0,8.0,28,0.00,,,0.00,meteohub,2013-01-12 15:12:00,
2013-01-12 07:18:00,40.5,9.9,29.75,NE,37,0.0,8.0,28,0.00,,,0.00,meteohub,2013-01-12 15:18:00,
2013-01-12 07:24:00,41.0,8.8,29.75,East,100,9.0,9.0,26,0.00,,,0.00,meteohub,2013-01-12 15:24:00,
2013-01-12 07:30:00,41.9,9.5,29.75,ENE,71,8.0,11.0,26,0.00,,,0.00,meteohub,2013-01-12 15:30:00,
2013-01-12 07:36:00,42.1,9.7,29.75,ENE,62,8.0,13.0,26,0.00,,,0.00,meteohub,2013-01-12 15:36:00,
2013-01-12 07:42:00,42.3,9.9,29.75,East,99,10.0,12.0,26,0.00,,,0.00,meteohub,2013-01-12 15:42:00,
2013-01-12 07:48:00,42.6,10.0,29.75,North,5,6.0,12.0,26,0.00,,,0.00,meteohub,2013-01-12 15:48:00,
2013-01-12 07:54:00,42.8,9.3,29.75,East,89,3.0,10.0,25,0.00,,,0.00,meteohub,2013-01-12 15:54:00,
2013-01-12 08:00:00,43.2,9.7,29.75,ENE,65,8.0,11.0,25,0.00,,,0.00,meteohub,2013-01-12 16:00:00,
2013-01-12 08:06:00,43.2,7.9,29.75,NNE,12,4.0,11.0,23,0.00,,,0.00,meteohub,2013-01-12 16:06:00,
2013-01-12 08:12:00,43.5,8.2,29.75,North,5,0.0,11.0,23,0.00,,,0.00,meteohub,2013-01-12 16:12:00,
2013-01-12 08:18:00,43.9,10.4,29.75,ESE,112,3.0,11.0,25,0.00,,,0.00,meteohub,2013-01-12 16:18:00,
2013-01-12 08:24:00,44.6,10.9,29.75,SSW,202,0.0,6.0,25,0.00,,,0.00,meteohub,2013-01-12 16:24:00,
2013-01-12 08:30:00,45.7,11.8,29.75,SW,224,4.0,4.0,25,0.00,,,0.00,meteohub,2013-01-12 16:30:00,
2013-01-12 08:36:00,46.2,12.4,29.75,SSW,204,5.0,5.0,25,0.00,,,0.00,meteohub,2013-01-12 16:36:00,
2013-01-12 08:42:00,45.5,11.7,29.78,SSW,210,0.0,6.0,25,0.00,,,0.00,meteohub,2013-01-12 16:42:00,
2013-01-12 08:48:00,45.1,11.5,29.78,SSW,210,3.0,6.0,25,0.00,,,0.00,meteohub,2013-01-12 16:48:00,
2013-01-12 08:54:00,45.3,11.5,29.78,SW,216,0.0,6.0,25,0.00,,,0.00,meteohub,2013-01-12 16:54:00,
2013-01-12 09:00:00,45.9,12.0,29.78,West,267,0.0,3.0,25,0.00,,,0.00,meteohub,2013-01-12 17:00:00,
2013-01-12 09:06:00,46.8,11.8,29.78,SSW,192,3.0,0.0,24,0.00,,,0.00,meteohub,2013-01-12 17:06:00,
2013-01-12 09:12:00,48.6,13.5,29.78,SW,218,0.0,3.0,24,0.00,,,0.00,meteohub,2013-01-12 17:12:00,
2013-01-12 09:18:00,54.0,17.1,29.78,WSW,252,0.0,3.0,23,0.00,,,0.00,meteohub,2013-01-12 17:18:00,
2013-01-12 09:24:00,64.2,19.8,29.78,WSW,240,0.0,4.0,18,0.00,,,0.00,meteohub,2013-01-12 17:24:00,
2013-01-12 09:30:00,66.4,20.3,29.78,SW,234,0.0,4.0,17,0.00,,,0.00,meteohub,2013-01-12 17:30:00,
2013-01-12 09:36:00,68.9,22.3,29.78,West,268,0.0,3.0,17,0.00,,,0.00,meteohub,2013-01-12 17:36:00,
2013-01-12 09:42:00,69.6,19.9,29.78,SW,215,3.0,3.0,15,0.00,,,0.00,meteohub,2013-01-12 17:42:00,
2013-01-12 09:48:00,61.9,15.3,29.78,SSW,204,3.0,0.0,16,0.00,,,0.00,meteohub,2013-01-12 17:48:00,
2013-01-12 09:54:00,59.5,14.7,29.78,SW,230,4.0,5.0,17,0.00,,,0.00,meteohub,2013-01-12 17:54:00,
2013-01-12 10:00:00,60.3,15.3,29.78,SSW,212,4.0,6.0,17,0.00,,,0.00,meteohub,2013-01-12 18:00:00,
2013-01-12 10:06:00,62.2,15.4,29.78,SSW,211,3.0,6.0,16,0.00,,,0.00,meteohub,2013-01-12 18:06:00,
2013-01-12 10:12:00,65.7,16.7,29.75,NW,324,3.0,5.0,15,0.00,,,0.00,meteohub,2013-01-12 18:12:00,
2013-01-12 10:19:00,67.5,18.1,29.75,WSW,253,3.0,5.0,15,0.00,,,0.00,meteohub,2013-01-12 18:19:00,
2013-01-12 10:25:00,63.9,16.7,29.75,SW,232,4.0,5.0,16,0.00,,,0.00,meteohub,2013-01-12 18:25:00,
2013-01-12 10:31:00,60.1,15.1,29.78,SW,214,5.0,6.0,17,0.00,,,0.00,meteohub,2013-01-12 18:31:00,
2013-01-12 10:37:00,62.6,15.8,29.78,SSW,205,4.0,8.0,16,0.00,,,0.00,meteohub,2013-01-12 18:37:00,
2013-01-12 10:43:00,63.9,16.7,29.78,SW,225,5.0,8.0,16,0.00,,,0.00,meteohub,2013-01-12 18:43:00,
2013-01-12 10:49:00,60.1,15.1,29.78,SSE,168,3.0,8.0,17,0.00,,,0.00,meteohub,2013-01-12 18:49:00,
2013-01-12 10:55:00,64.6,15.8,29.78,West,271,4.0,7.0,15,0.00,,,0.00,meteohub,2013-01-12 18:55:00,
2013-01-12 11:01:00,62.6,15.8,29.78,South,187,5.0,7.0,16,0.00,,,0.00,meteohub,2013-01-12 19:01:00,
2013-01-12 11:07:00,60.8,14.4,29.78,South,183,6.0,6.0,16,0.00,,,0.00,meteohub,2013-01-12 19:07:00,
2013-01-12 11:13:00,62.6,15.8,29.75,SSW,199,5.0,6.0,16,0.00,,,0.00,meteohub,2013-01-12 19:13:00,
2013-01-12 11:19:00,65.3,20.7,29.75,WSW,252,6.0,6.0,18,0.00,,,0.00,meteohub,2013-01-12 19:19:00,
2013-01-12 11:25:00,64.0,16.9,29.75,SW,235,4.0,6.0,16,0.00,,,0.00,meteohub,2013-01-12 19:25:00,
2013-01-12 11:31:00,64.8,20.3,29.75,SW,217,5.0,6.0,18,0.00,,,0.00,meteohub,2013-01-12 19:31:00,
2013-01-12 11:37:00,65.7,16.7,29.75,SSW,211,6.0,8.0,15,0.00,,,0.00,meteohub,2013-01-12 19:37:00,
2013-01-12 11:43:00,61.9,19.2,29.75,WSW,254,4.0,8.0,19,0.00,,,0.00,meteohub,2013-01-12 19:43:00,
2013-01-12 11:49:00,63.5,19.2,29.75,SSW,194,8.0,8.0,18,0.00,,,0.00,meteohub,2013-01-12 19:49:00,
2013-01-12 11:55:00,65.5,20.8,29.75,WSW,252,4.0,8.0,18,0.00,,,0.00,meteohub,2013-01-12 19:55:00,
2013-01-12 12:01:00,63.9,19.6,29.75,SW,217,4.0,8.0,18,0.00,,,0.00,meteohub,2013-01-12 20:01:00,
2013-01-12 12:07:00,67.6,21.2,29.75,WNW,284,4.0,8.0,17,0.00,,,0.00,meteohub,2013-01-12 20:07:00,
2013-01-12 12:13:00,65.5,20.8,29.72,WSW,252,4.0,8.0,18,0.00,,,0.00,meteohub,2013-01-12 20:13:00,
2013-01-12 12:19:00,65.5,16.5,29.72,South,178,4.0,8.0,15,0.00,,,0.00,meteohub,2013-01-12 20:19:00,
2013-01-12 12:25:00,63.0,16.0,29.72,WNW,286,0.0,8.0,16,0.00,,,0.00,meteohub,2013-01-12 20:25:00,
2013-01-12 12:31:00,66.2,17.2,29.72,NNW,331,4.0,8.0,15,0.00,,,0.00,meteohub,2013-01-12 20:31:00,
2013-01-12 12:37:00,69.4,22.6,29.72,West,272,3.0,7.0,17,0.00,,,0.00,meteohub,2013-01-12 20:37:00,
2013-01-12 12:43:00,69.6,22.8,29.72,SSW,200,4.0,7.0,17,0.00,,,0.00,meteohub,2013-01-12 20:43:00,
2013-01-12 12:49:00,69.1,22.5,29.72,WNW,293,3.0,7.0,17,0.00,,,0.00,meteohub,2013-01-12 20:49:00,
2013-01-12 12:55:00,68.9,22.3,29.72,NW,326,8.0,8.0,17,0.00,,,0.00,meteohub,2013-01-12 20:55:00,
2013-01-12 13:01:00,67.5,21.2,29.72,West,276,6.0,9.0,17,0.00,,,0.00,meteohub,2013-01-12 21:01:00,
2013-01-12 13:07:00,66.0,21.2,29.72,WNW,289,4.0,9.0,18,0.00,,,0.00,meteohub,2013-01-12 21:07:00,
2013-01-12 13:13:00,66.9,20.7,29.72,West,280,6.0,9.0,17,0.00,,,0.00,meteohub,2013-01-12 21:13:00,
2013-01-12 13:20:00,67.6,21.2,29.72,SW,233,4.0,9.0,17,0.00,,,0.00,meteohub,2013-01-12 21:20:00,
2013-01-12 13:26:00,68.0,21.6,29.72,West,266,5.0,8.0,17,0.00,,,0.00,meteohub,2013-01-12 21:26:00,
2013-01-12 13:32:00,68.7,22.1,29.72,SW,234,5.0,6.0,17,0.00,,,0.00,meteohub,2013-01-12 21:32:00,
2013-01-12 13:38:00,69.8,23.0,29.72,WNW,295,4.0,6.0,17,0.00,,,0.00,meteohub,2013-01-12 21:38:00,
2013-01-12 13:44:00,68.9,22.3,29.72,WNW,295,4.0,7.0,17,0.00,,,0.00,meteohub,2013-01-12 21:44:00,
2013-01-12 13:50:00,68.7,19.2,29.72,SSW,212,4.0,6.0,15,0.00,,,0.00,meteohub,2013-01-12 21:50:00,
2013-01-12 13:56:00,64.4,15.8,29.72,SSW,212,5.0,6.0,15,0.00,,,0.00,meteohub,2013-01-12 21:56:00,
2013-01-12 14:02:00,63.3,16.3,29.72,South,189,5.0,6.0,16,0.00,,,0.00,meteohub,2013-01-12 22:02:00,
2013-01-12 14:08:00,64.4,15.8,29.72,SW,224,4.0,8.0,15,0.00,,,0.00,meteohub,2013-01-12 22:08:00,
2013-01-12 14:14:00,66.6,17.4,29.72,SSW,203,5.0,8.0,15,0.00,,,0.00,meteohub,2013-01-12 22:14:00,
2013-01-12 14:20:00,64.8,16.0,29.72,SW,226,4.0,6.0,15,0.00,,,0.00,meteohub,2013-01-12 22:20:00,
2013-01-12 14:26:00,64.4,15.8,29.72,South,178,5.0,6.0,15,0.00,,,0.00,meteohub,2013-01-12 22:26:00,
2013-01-12 14:32:00,63.3,16.3,29.72,South,189,6.0,7.0,16,0.00,,,0.00,meteohub,2013-01-12 22:32:00,
2013-01-12 14:38:00,63.1,16.2,29.72,SSW,197,6.0,7.0,16,0.00,,,0.00,meteohub,2013-01-12 22:38:00,
2013-01-12 14:44:00,63.0,16.0,29.72,SW,236,7.0,7.0,16,0.00,,,0.00,meteohub,2013-01-12 22:44:00,
2013-01-12 14:50:00,61.5,14.9,29.72,SW,216,6.0,8.0,16,0.00,,,0.00,meteohub,2013-01-12 22:50:00,
2013-01-12 14:56:00,64.8,16.0,29.72,SW,230,5.0,8.0,15,0.00,,,0.00,meteohub,2013-01-12 22:56:00,
2013-01-12 15:02:00,65.1,16.3,29.72,South,190,4.0,8.0,15,0.00,,,0.00,meteohub,2013-01-12 23:02:00,
2013-01-12 15:08:00,65.3,16.5,29.72,West,264,5.0,8.0,15,0.00,,,0.00,meteohub,2013-01-12 23:08:00,
2013-01-12 15:14:00,64.0,16.9,29.72,SW,227,4.0,6.0,16,0.00,,,0.00,meteohub,2013-01-12 23:14:00,
2013-01-12 15:21:00,61.2,14.5,29.72,SSW,205,5.0,8.0,16,0.00,,,0.00,meteohub,2013-01-12 23:21:00,
2013-01-12 15:27:00,61.3,14.7,29.72,SW,230,8.0,8.0,16,0.00,,,0.00,meteohub,2013-01-12 23:27:00,
2013-01-12 15:33:00,64.8,16.0,29.72,WSW,250,4.0,8.0,15,0.00,,,0.00,meteohub,2013-01-12 23:33:00,
2013-01-12 15:39:00,62.6,15.8,29.72,WSW,252,4.0,8.0,16,0.00,,,0.00,meteohub,2013-01-12 23:39:00,
2013-01-12 15:45:00,60.8,14.4,29.72,SSW,195,6.0,6.0,16,0.00,,,0.00,meteohub,2013-01-12 23:45:00,
2013-01-12 15:51:00,63.3,16.3,29.72,NW,312,3.0,6.0,16,0.00,,,0.00,meteohub,2013-01-12 23:51:00,
2013-01-12 15:57:00,62.1,15.3,29.72,SW,223,3.0,6.0,16,0.00,,,0.00,meteohub,2013-01-12 23:57:00,
2013-01-12 16:03:00,57.9,13.3,29.72,SSW,210,5.0,6.0,17,0.00,,,0.00,meteohub,2013-01-13 00:03:00,
2013-01-12 16:09:00,60.1,15.1,29.72,West,280,0.0,6.0,17,0.00,,,0.00,meteohub,2013-01-13 00:09:00,
2013-01-12 16:15:00,60.4,15.4,29.72,SW,219,6.0,6.0,17,0.00,,,0.00,meteohub,2013-01-13 00:15:00,
2013-01-12 16:21:00,58.8,14.0,29.72,SW,221,4.0,6.0,17,0.00,,,0.00,meteohub,2013-01-13 00:21:00,
2013-01-12 16:27:00,59.2,14.4,29.72,West,279,0.0,6.0,17,0.00,,,0.00,meteohub,2013-01-13 00:27:00,
2013-01-12 16:33:00,58.8,14.0,29.72,SW,236,4.0,6.0,17,0.00,,,0.00,meteohub,2013-01-13 00:33:00,
2013-01-12 16:39:00,59.0,14.2,29.72,West,266,0.0,6.0,17,0.00,,,0.00,meteohub,2013-01-13 00:39:00,
2013-01-12 16:45:00,57.9,13.3,29.72,WSW,256,3.0,5.0,17,0.00,,,0.00,meteohub,2013-01-13 00:45:00,
2013-01-12 16:51:00,56.7,16.0,29.72,WSW,239,3.0,5.0,20,0.00,,,0.00,meteohub,2013-01-13 00:51:00,
2013-01-12 16:57:00,55.0,14.7,29.72,WNW,294,3.0,5.0,20,0.00,,,0.00,meteohub,2013-01-13 00:57:00,
2013-01-12 17:03:00,53.1,14.2,29.72,WNW,298,3.0,5.0,21,0.00,,,0.00,meteohub,2013-01-13 01:03:00,
2013-01-12 17:09:00,51.3,17.6,29.72,WSW,256,2.0,5.0,26,0.00,,,0.00,meteohub,2013-01-13 01:09:00,
2013-01-12 17:15:00,49.8,17.2,29.72,West,268,0.0,4.0,27,0.00,,,0.00,meteohub,2013-01-13 01:15:00,
2013-01-12 17:21:00,49.3,17.6,29.72,WSW,256,0.0,4.0,28,0.00,,,0.00,meteohub,2013-01-13 01:21:00,
2013-01-12 17:27:00,49.1,17.4,29.72,WSW,244,0.0,3.0,28,0.00,,,0.00,meteohub,2013-01-13 01:27:00,
2013-01-12 17:33:00,48.7,18.0,29.72,SSW,211,0.0,3.0,29,0.00,,,0.00,meteohub,2013-01-13 01:33:00,
2013-01-12 17:40:00,47.8,17.1,29.72,SSW,212,0.0,0.0,29,0.00,,,0.00,meteohub,2013-01-13 01:40:00,
2013-01-12 17:46:00,47.7,17.8,29.72,SW,221,0.0,0.0,30,0.00,,,0.00,meteohub,2013-01-13 01:46:00,
2013-01-12 17:52:00,47.5,18.3,29.72,SW,221,0.0,0.0,31,0.00,,,0.00,meteohub,2013-01-13 01:52:00,
2013-01-12 17:58:00,47.5,18.3,29.72,SW,221,0.0,0.0,31,0.00,,,0.00,meteohub,2013-01-13 01:58:00,
2013-01-12 18:04:00,47.8,19.4,29.72,NNW,336,0.0,0.0,32,0.00,,,0.00,meteohub,2013-01-13 02:04:00,
2013-01-12 18:10:00,47.8,19.4,29.72,North,357,0.0,0.0,32,0.00,,,0.00,meteohub,2013-01-13 02:10:00,
2013-01-12 18:16:00,47.5,19.8,29.72,North,357,0.0,0.0,33,0.00,,,0.00,meteohub,2013-01-13 02:16:00,
2013-01-12 18:22:00,47.7,19.9,29.72,North,357,0.0,0.0,33,0.00,,,0.00,meteohub,2013-01-13 02:22:00,
2013-01-12 18:28:00,47.3,19.6,29.72,North,357,0.0,0.0,33,0.00,,,0.00,meteohub,2013-01-13 02:28:00,
2013-01-12 18:34:00,46.9,19.9,29.72,North,357,0.0,0.0,34,0.00,,,0.00,meteohub,2013-01-13 02:34:00,
2013-01-12 18:40:00,46.9,19.9,29.72,NNE,18,0.0,0.0,34,0.00,,,0.00,meteohub,2013-01-13 02:40:00,
2013-01-12 18:46:00,47.1,20.8,29.72,North,11,2.0,4.0,35,0.00,,,0.00,meteohub,2013-01-13 02:46:00,
2013-01-12 18:52:00,46.8,21.2,29.72,NNE,16,0.0,4.0,36,0.00,,,0.00,meteohub,2013-01-13 02:52:00,
2013-01-12 18:58:00,46.6,21.0,29.72,NNE,16,0.0,4.0,36,0.00,,,0.00,meteohub,2013-01-13 02:58:00,
2013-01-12 19:04:00,46.2,20.7,29.72,NNE,15,0.0,3.0,36,0.00,,,0.00,meteohub,2013-01-13 03:04:00,
2013-01-12 19:10:00,46.0,21.2,29.72,NNE,16,0.0,0.0,37,0.00,,,0.00,meteohub,2013-01-13 03:10:00,
2013-01-12 19:16:00,46.2,21.4,29.72,North,9,0.0,0.0,37,0.00,,,0.00,meteohub,2013-01-13 03:16:00,
2013-01-12 19:22:00,46.4,21.6,29.72,North,11,0.0,0.0,37,0.00,,,0.00,meteohub,2013-01-13 03:22:00,
2013-01-12 19:28:00,46.4,21.6,29.72,NNE,22,4.0,4.0,37,0.00,,,0.00,meteohub,2013-01-13 03:28:00,
2013-01-12 19:34:00,46.2,21.4,29.72,North,9,3.0,4.0,37,0.00,,,0.00,meteohub,2013-01-13 03:34:00,
2013-01-12 19:40:00,46.0,21.2,29.72,NNE,25,3.0,4.0,37,0.00,,,0.00,meteohub,2013-01-13 03:40:00,
2013-01-12 19:46:00,45.9,21.0,29.72,NNE,18,2.0,4.0,37,0.00,,,0.00,meteohub,2013-01-13 03:46:00,
2013-01-12 19:52:00,45.9,21.0,29.72,NNE,19,3.0,4.0,37,0.00,,,0.00,meteohub,2013-01-13 03:52:00,
2013-01-12 19:58:00,45.7,20.8,29.72,NE,36,3.0,4.0,37,0.00,,,0.00,meteohub,2013-01-13 03:58:00,
2013-01-12 20:04:00,45.5,20.7,29.72,NNE,28,3.0,4.0,37,0.00,,,0.00,meteohub,2013-01-13 04:04:00,
2013-01-12 20:10:00,45.3,20.7,29.72,NNE,24,2.0,4.0,37,0.00,,,0.00,meteohub,2013-01-13 04:10:00,
2013-01-12 20:17:00,45.0,20.3,29.72,NNE,31,0.0,4.0,37,0.00,,,0.00,meteohub,2013-01-13 04:17:00,
2013-01-12 20:23:00,44.8,20.7,29.72,NNE,29,0.0,4.0,38,0.00,,,0.00,meteohub,2013-01-13 04:23:00,
2013-01-12 20:29:00,44.4,20.5,29.72,NNE,29,0.0,3.0,38,0.00,,,0.00,meteohub,2013-01-13 04:29:00,
2013-01-12 20:35:00,44.2,20.3,29.72,NE,38,0.0,0.0,38,0.00,,,0.00,meteohub,2013-01-13 04:35:00,
2013-01-12 20:41:00,44.1,20.1,29.72,NE,38,0.0,0.0,38,0.00,,,0.00,meteohub,2013-01-13 04:41:00,
2013-01-12 20:47:00,43.7,19.8,29.72,NE,38,0.0,0.0,38,0.00,,,0.00,meteohub,2013-01-13 04:47:00,
2013-01-12 20:53:00,43.5,19.6,29.72,NE,38,0.0,0.0,38,0.00,,,0.00,meteohub,2013-01-13 04:53:00,
2013-01-12 20:59:00,43.3,19.4,29.72,ENE,62,0.0,0.0,38,0.00,,,0.00,meteohub,2013-01-13 04:59:00,
2013-01-12 21:01:00,43.3,19.4,29.72,ENE,59,0.0,0.0,38,0.00,,,0.00,meteohub,2013-01-13 05:01:00,
2013-01-12 21:05:00,43.5,19.6,29.72,ENE,62,0.0,0.0,38,0.00,,,0.00,meteohub,2013-01-13 05:05:00,
2013-01-12 21:07:00,43.5,19.6,29.72,ENE,62,0.0,0.0,38,0.00,,,0.00,meteohub,2013-01-13 05:07:00,
2013-01-12 21:09:00,43.5,19.6,29.72,ENE,61,0.0,0.0,38,0.00,,,0.00,meteohub,2013-01-13 05:09:00,
2013-01-12 21:15:00,43.7,19.8,29.72,NE,54,4.0,4.0,38,0.00,,,0.00,meteohub,2013-01-13 05:15:00,
2013-01-12 21:21:00,43.3,19.4,29.72,NE,53,2.0,4.0,38,0.00,,,0.00,meteohub,2013-01-13 05:21:00,
2013-01-12 21:27:00,43.7,19.8,29.72,ENE,67,4.0,5.0,38,0.00,,,0.00,meteohub,2013-01-13 05:27:00,
2013-01-12 21:33:00,44.1,20.1,29.72,ENE,61,5.0,5.0,38,0.00,,,0.00,meteohub,2013-01-13 05:33:00,
2013-01-12 21:39:00,44.1,18.9,29.72,ENE,67,3.0,8.0,36,0.00,,,0.00,meteohub,2013-01-13 05:39:00,
2013-01-12 21:45:00,43.9,18.0,29.72,ENE,69,4.0,8.0,35,0.00,,,0.00,meteohub,2013-01-13 05:45:00,
2013-01-12 21:51:00,43.9,16.7,29.72,ENE,74,6.0,6.0,33,0.00,,,0.00,meteohub,2013-01-13 05:51:00,
2013-01-12 21:57:00,43.9,16.0,29.72,NE,50,5.0,8.0,32,0.00,,,0.00,meteohub,2013-01-13 05:57:00,
2013-01-12 22:03:00,43.9,15.3,29.72,ENE,65,6.0,8.0,31,0.00,,,0.00,meteohub,2013-01-13 06:03:00,
2013-01-12 22:09:00,44.1,15.3,29.72,ENE,65,4.0,8.0,31,0.00,,,0.00,meteohub,2013-01-13 06:09:00,
2013-01-12 22:15:00,43.9,14.4,29.72,ENE,63,5.0,8.0,30,0.00,,,0.00,meteohub,2013-01-13 06:15:00,
2013-01-12 22:21:00,44.1,13.8,29.72,ENE,62,6.0,11.0,29,0.00,,,0.00,meteohub,2013-01-13 06:21:00,
2013-01-12 22:27:00,43.9,13.6,29.72,East,88,8.0,11.0,29,0.00,,,0.00,meteohub,2013-01-13 06:27:00,
2013-01-12 22:33:00,43.7,13.5,29.72,NE,55,6.0,11.0,29,0.00,,,0.00,meteohub,2013-01-13 06:33:00,
2013-01-12 22:39:00,43.7,13.5,29.72,ENE,57,8.0,11.0,29,0.00,,,0.00,meteohub,2013-01-13 06:39:00,
2013-01-12 22:45:00,43.7,13.5,29.72,NE,49,5.0,10.0,29,0.00,,,0.00,meteohub,2013-01-13 06:45:00,
2013-01-12 22:51:00,43.7,13.5,29.72,ENE,60,8.0,10.0,29,0.00,,,0.00,meteohub,2013-01-13 06:51:00,
2013-01-12 22:57:00,43.7,13.5,29.72,NE,51,6.0,11.0,29,0.00,,,0.00,meteohub,2013-01-13 06:57:00,
2013-01-12 23:03:00,44.1,13.8,29.72,East,92,8.0,11.0,29,0.00,,,0.00,meteohub,2013-01-13 07:03:00,
2013-01-12 23:10:00,44.2,14.0,29.72,ENE,65,10.0,11.0,29,0.00,,,0.00,meteohub,2013-01-13 07:10:00,
2013-01-12 23:16:00,44.1,13.8,29.72,NE,55,8.0,11.0,29,0.00,,,0.00,meteohub,2013-01-13 07:16:00,
2013-01-12 23:22:00,44.1,13.8,29.72,ENE,76,8.0,11.0,29,0.00,,,0.00,meteohub,2013-01-13 07:22:00,
2013-01-12 23:28:00,44.1,13.8,29.72,ENE,58,11.0,11.0,29,0.00,,,0.00,meteohub,2013-01-13 07:28:00,
2013-01-12 23:34:00,44.1,13.8,29.72,ENE,68,8.0,11.0,29,0.00,,,0.00,meteohub,2013-01-13 07:34:00,
2013-01-12 23:40:00,44.1,13.8,29.72,NE,40,8.0,11.0,29,0.00,,,0.00,meteohub,2013-01-13 07:40:00,
2013-01-12 23:46:00,44.2,14.0,29.72,NE,51,9.0,11.0,29,0.00,,,0.00,meteohub,2013-01-13 07:46:00,
2013-01-12 23:52:00,44.1,13.8,29.72,ENE,69,6.0,11.0,29,0.00,,,0.00,meteohub,2013-01-13 07:52:00,
2013-01-12 23:58:00,43.9,12.9,29.72,ENE,62,6.0,9.0,28,0.00,,,0.00,meteohub,2013-01-13 07:58:00,